Location: Newark
(45.2500°N, 7.5833°E)
Time: 15:02:30
(UTC+00:00)

Tiros 1 despin weight - Pass Details

Date: 27 January 2020
Orbit: 594 x 642 km, 48.2° (Epoch: 27 February)

Event Time Altitude Azimuth Distance (km) Brightness Sun altitude
Rises 11:51:54 0° 263° (W) 2,865 ? 26.2°
Reaches altitude 10° 11:54:12 10° 267° (W) 1,969 ? 26.2°
Maximum altitude 11:58:42 66° 350° (N) 678 ? 26.1°
Drops below altitude 10° 12:03:17 10° 73° (ENE) 2,003 ? 26.1°
Sets 12:05:39 0° 76° (ENE) 2,919 ? 26.0°
